Regional Weather Roundup
Issued by NWS Northern Indiana

Home | Current Version | Previous Version | Graphics & Text | Print | Product List | Glossary On
Versions: 1 2 3 4 5 6 7 8 9 10 11 12 13 14 15 16 17 18 19 20 21 22 23 24 25 26 27 28 29 30 31 32 33 34 35 36 37 38 39 40 41 42 43 44 45 46 47 48 49 50
000
ASUS43 KIWX 232210
RWRIWX

KIWX WEATHER ROUNDUP
NATIONAL WEATHER SERVICE NORTHERN INDIANA
500 PM EST THU FEB 23 2017

NOTE: "FAIR" INDICATES FEW OR NO CLOUDS BELOW 12,000 FEET WITH NO
SIGNIFICANT WEATHER AND/OR OBSTRUCTIONS TO VISIBILITY.

* THESE STATIONS ARE NOT UNDER NWS QUALITY CONTROL. THEY ALSO MAY NOT
  REPORT WEATHER SUCH AS PRECIPITATION OR FOG.

INZ001>027-232300-
NORTHERN INDIANA

CITY           SKY/WX    TMP DP  RH WIND       PRES   REMARKS
GARY*          CLOUDY    41  36  81 N12G23    29.82S
VALPARAISO     CLOUDY    43  38  82 N13G18    29.77F
MICHIGAN CITY* CLOUDY    37  36  93 N9        29.81S
LAPORTE*       CLOUDY    41  37  86 N8        29.79S
KNOX*          CLOUDY    46  23  39 N10       29.77S
SOUTH BEND     CLOUDY    44  38  79 N10       29.77F
ELKHART*       SUNNY     48  41  76 N5        29.77F
GOSHEN         PTSUNNY   53  42  66 N9        29.76F
MONTICELLO*    CLOUDY    56  46  68 NE7       29.73F
LOGANSPORT*    CLOUDY    61  48  63 CALM      29.73F
ROCHESTER*     CLOUDY    57  46  67 N7        29.75F
WARSAW*        PTSUNNY   55  45  67 N5        29.76S
ANGOLA*        SUNNY     55  46  71 N5        29.76S
FORT WAYNE     CLOUDY    63  51  65 S9        29.75S
HUNTINGTON*    CLOUDY    61  53  73 S6        29.75F
PERU/GRISSOM   PTSUNNY   61  55  81 E6        29.71F
MARION*        CLOUDY    60  55  82 N5        29.75F

$$
INZ028>050-232300-
CENTRAL INDIANA

CITY           SKY/WX    TMP DP  RH WIND       PRES   REMARKS
LAFAYETTE      CLOUDY    59  50  72 NE8       29.71F
KOKOMO*        CLOUDY    60  54  80 E7        29.73F
MUNCIE*        CLOUDY    64  55  72 CALM      29.75S
INDIANAPOLIS   CLOUDY    68  54  60 SW6       29.71F

$$
MIZ043>046-050>051-056>058-064>065-071>073-077>080-232300-
SOUTHWEST LOWER MICHIGAN

CITY           SKY/WX    TMP DP  RH WIND       PRES   REMARKS
BATTLE CREEK   PTSUNNY   53  43  68 N6        29.78F
BENTON HARBOR  CLOUDY    40  36  86 N5        29.79F
COLDWATER*     CLOUDY    55  44  65 NW5       29.78R
HILLSDALE*     CLOUDY    57  43  58 NW5       29.76S
HOLLAND        CLOUDY    44  37  76 CALM      29.80S
GRAND RAPIDS   CLOUDY    50  38  63 NE5       29.78F
KALAMAZOO      MOSUNNY   51  39  63 E3        29.78F
STURGIS*       CLOUDY    51  43  75 NE7       29.77S
THREE RIVERS*  FAIR      49  41  74 NE3       29.78S

$$
OHZ001>008-015>018-024>025-232300-
NORTHWEST OHIO

CITY           SKY/WX    TMP DP  RH WIND       PRES   REMARKS
WAUSEON*       FAIR      64  45  48 NW5       29.76S
DEFIANCE       CLOUDY    64  46  52 CALM      29.76S
FINDLAY        CLOUDY    66  53  63 W7        29.76R
TOLEDO EXPRESS CLOUDY    64  44  48 N7        29.76R
TOLEDO METCALF CLOUDY    67  46  47 CALM      29.77R
LIMA           CLOUDY    63  56  78 NW7       29.76S

$$
AND FOR LAKE MICHIGAN COASTAL AND OPEN LAKE BUOY OBSERVATIONS

STATION/POSITION TEMP    WIND        PRES    VSBY  WAVE
                 AIR SEA DIR/SP/G                  HT/PER
                 (F)     (DEG/KT/KT) (MB)    (MI)  (FT/S)
CALUMET HARBOR    38      10/ 10/ 13 1009.2F
MICHIGAN CITY     36      20/ 10/ 10   N/A
BURNS HARBOR      38      50/ 11/ 12 1010.2F
SAINT JOSEPH      38      10/  6/ 10 1010.5

$$
&&



USA.gov is the U.S. government's official web portal to all federal, state and local government web resources and services.